Time,TemperatureF,DewpointF,PressureIn,WindDirection,WindDirectionDegrees,WindSpeedMPH,WindSpeedGustMPH,Humidity,HourlyPrecipIn,Conditions,Clouds,dailyrainin,SoftwareType,DateUTC
2013-04-02 00:10:00,24.2,16.0,30.28,WNW,295,8.0,-999.0,70,-99.99,,,0.00,weatherlink.com 1.10,2013-04-02 05:10:00,
2013-04-02 00:25:00,24.1,16.0,30.28,WNW,292,3.0,-999.0,70,-99.99,,,0.00,weatherlink.com 1.10,2013-04-02 05:25:00,
2013-04-02 00:40:00,23.8,16.0,30.28,West,276,2.0,-999.0,71,-99.99,,,0.00,weatherlink.com 1.10,2013-04-02 05:40:00,
2013-04-02 00:55:00,23.5,15.0,30.28,WNW,293,3.0,-999.0,71,-99.99,,,0.00,weatherlink.com 1.10,2013-04-02 05:55:00,
2013-04-02 01:10:00,23.3,15.0,30.28,West,274,0.0,-999.0,71,-99.99,,,0.00,weatherlink.com 1.10,2013-04-02 06:10:00,
2013-04-02 01:25:00,23.0,15.0,30.28,NW,307,0.0,-999.0,72,-99.99,,,0.00,weatherlink.com 1.10,2013-04-02 06:25:00,
2013-04-02 01:40:00,22.9,15.0,30.28,NW,309,0.0,-999.0,72,-99.99,,,0.00,weatherlink.com 1.10,2013-04-02 06:40:00,
2013-04-02 01:55:00,22.5,15.0,30.28,WNW,290,2.0,-999.0,73,-99.99,,,0.00,weatherlink.com 1.10,2013-04-02 06:55:00,
2013-04-02 02:10:00,22.2,15.0,30.28,WNW,297,2.0,-999.0,73,-99.99,,,0.00,weatherlink.com 1.10,2013-04-02 07:10:00,
2013-04-02 02:25:00,22.1,15.0,30.28,WNW,294,1.0,-999.0,74,-99.99,,,0.00,weatherlink.com 1.10,2013-04-02 07:25:00,
2013-04-02 02:40:00,21.9,15.0,30.28,WNW,288,0.0,-999.0,75,-99.99,,,0.00,weatherlink.com 1.10,2013-04-02 07:40:00,
2013-04-02 02:55:00,21.9,15.0,30.28,West,274,0.0,-999.0,76,-99.99,,,0.00,weatherlink.com 1.10,2013-04-02 07:55:00,
2013-04-02 03:10:00,21.8,16.0,30.28,West,281,0.0,-999.0,77,-99.99,,,0.00,weatherlink.com 1.10,2013-04-02 08:10:00,
2013-04-02 03:25:00,21.3,15.0,30.28,West,277,0.0,-999.0,77,-99.99,,,0.00,weatherlink.com 1.10,2013-04-02 08:25:00,
2013-04-02 03:40:00,21.0,15.0,30.27,West,279,1.0,-999.0,77,-99.99,,,0.00,weatherlink.com 1.10,2013-04-02 08:40:00,
2013-04-02 03:55:00,21.0,15.0,30.27,West,279,1.0,-999.0,78,-99.99,,,0.00,weatherlink.com 1.10,2013-04-02 08:55:00,
2013-04-02 04:10:00,20.8,15.0,30.27,West,275,0.0,-999.0,78,-99.99,,,0.00,weatherlink.com 1.10,2013-04-02 09:10:00,
2013-04-02 04:25:00,20.6,15.0,30.27,West,275,0.0,-999.0,79,-99.99,,,0.00,weatherlink.com 1.10,2013-04-02 09:25:00,
2013-04-02 04:40:00,20.6,15.0,30.27,West,276,2.0,-999.0,79,-99.99,,,0.00,weatherlink.com 1.10,2013-04-02 09:40:00,
2013-04-02 04:55:00,20.5,15.0,30.28,West,274,1.0,-999.0,80,-99.99,,,0.00,weatherlink.com 1.10,2013-04-02 09:55:00,
2013-04-02 05:10:00,20.2,15.0,30.28,West,272,0.0,-999.0,80,-99.99,,,0.00,weatherlink.com 1.10,2013-04-02 10:10:00,
2013-04-02 05:25:00,20.0,15.0,30.28,West,272,0.0,-999.0,81,-99.99,,,0.00,weatherlink.com 1.10,2013-04-02 10:25:00,
2013-04-02 05:40:00,20.0,15.0,30.28,West,269,1.0,-999.0,81,-99.99,,,0.00,weatherlink.com 1.10,2013-04-02 10:40:00,
2013-04-02 05:55:00,19.9,15.0,30.28,West,269,0.0,-999.0,81,-99.99,,,0.00,weatherlink.com 1.10,2013-04-02 10:55:00,
2013-04-02 06:10:00,19.7,15.0,30.29,West,269,1.0,-999.0,81,-99.99,,,0.00,weatherlink.com 1.10,2013-04-02 11:10:00,
2013-04-02 06:25:00,19.7,15.0,30.30,West,269,3.0,-999.0,81,-99.99,,,0.00,weatherlink.com 1.10,2013-04-02 11:25:00,
2013-04-02 06:40:00,19.7,15.0,30.30,West,273,2.0,-999.0,80,-99.99,,,0.00,weatherlink.com 1.10,2013-04-02 11:40:00,
2013-04-02 06:55:00,19.7,14.0,30.30,NW,324,0.0,-999.0,78,-99.99,,,0.00,weatherlink.com 1.10,2013-04-02 11:55:00,
2013-04-02 07:10:00,19.7,14.0,30.31,NW,321,1.0,-999.0,78,-99.99,,,0.00,weatherlink.com 1.10,2013-04-02 12:10:00,
2013-04-02 07:25:00,20.3,14.0,30.32,WNW,287,4.0,-999.0,77,-99.99,,,0.00,weatherlink.com 1.10,2013-04-02 12:25:00,
2013-04-02 07:40:00,21.1,15.0,30.32,NW,307,1.0,-999.0,76,-99.99,,,0.00,weatherlink.com 1.10,2013-04-02 12:40:00,
2013-04-02 07:55:00,21.6,15.0,30.33,WNW,297,3.0,-999.0,75,-99.99,,,0.00,weatherlink.com 1.10,2013-04-02 12:55:00,
2013-04-02 08:10:00,22.4,15.0,30.33,NW,316,0.0,-999.0,74,-99.99,,,0.00,weatherlink.com 1.10,2013-04-02 13:10:00,
2013-04-02 08:25:00,23.3,15.0,30.34,West,281,2.0,-999.0,71,-99.99,,,0.00,weatherlink.com 1.10,2013-04-02 13:25:00,
2013-04-02 08:40:00,24.1,15.0,30.34,NW,325,4.0,-999.0,69,-99.99,,,0.00,weatherlink.com 1.10,2013-04-02 13:40:00,
2013-04-02 08:55:00,25.1,15.0,30.34,NW,322,2.0,-999.0,65,-99.99,,,0.00,weatherlink.com 1.10,2013-04-02 13:55:00,
2013-04-02 09:10:00,25.6,14.0,30.34,NW,323,5.0,-999.0,63,-99.99,,,0.00,weatherlink.com 1.10,2013-04-02 14:10:00,
2013-04-02 09:25:00,25.8,14.0,30.34,NW,304,4.0,-999.0,62,-99.99,,,0.00,weatherlink.com 1.10,2013-04-02 14:25:00,
2013-04-02 09:40:00,26.9,15.0,30.34,North,349,2.0,-999.0,60,-99.99,,,0.00,weatherlink.com 1.10,2013-04-02 14:40:00,
2013-04-02 09:55:00,27.2,14.0,30.34,NNW,334,1.0,-999.0,59,-99.99,,,0.00,weatherlink.com 1.10,2013-04-02 14:55:00,
2013-04-02 10:10:00,27.6,14.0,30.34,NW,323,0.0,-999.0,58,-99.99,,,0.00,weatherlink.com 1.10,2013-04-02 15:10:00,
2013-04-02 10:25:00,28.2,14.0,30.34,NW,322,3.0,-999.0,55,-99.99,,,0.00,weatherlink.com 1.10,2013-04-02 15:25:00,
2013-04-02 10:40:00,29.0,14.0,30.34,North,0,2.0,-999.0,53,-99.99,,,0.00,weatherlink.com 1.10,2013-04-02 15:40:00,
2013-04-02 10:55:00,29.1,13.0,30.34,NW,326,8.0,-999.0,52,-99.99,,,0.00,weatherlink.com 1.10,2013-04-02 15:55:00,
2013-04-02 11:10:00,29.5,13.0,30.34,NW,326,6.0,-999.0,50,-99.99,,,0.00,weatherlink.com 1.10,2013-04-02 16:10:00,
2013-04-02 11:25:00,30.1,13.0,30.34,North,358,5.0,-999.0,50,-99.99,,,0.00,weatherlink.com 1.10,2013-04-02 16:25:00,
2013-04-02 11:40:00,29.8,12.0,30.35,North,2,5.0,-999.0,48,-99.99,,,0.00,weatherlink.com 1.10,2013-04-02 16:40:00,
2013-04-02 11:55:00,30.4,13.0,30.35,North,358,3.0,-999.0,49,-99.99,,,0.00,weatherlink.com 1.10,2013-04-02 16:55:00,
2013-04-02 12:10:00,30.4,13.0,30.35,North,358,7.0,-999.0,49,-99.99,,,0.00,weatherlink.com 1.10,2013-04-02 17:10:00,
2013-04-02 12:40:00,31.6,11.0,30.34,NNW,328,5.0,-999.0,42,-99.99,,,0.00,weatherlink.com 1.10,2013-04-02 17:40:00,
2013-04-02 12:55:00,32.2,11.0,30.34,North,352,0.0,-999.0,42,-99.99,,,0.00,weatherlink.com 1.10,2013-04-02 17:55:00,
2013-04-02 13:10:00,32.8,12.0,30.34,North,354,2.0,-999.0,43,-99.99,,,0.00,weatherlink.com 1.10,2013-04-02 18:10:00,
2013-04-02 13:25:00,33.1,13.0,30.33,North,1,5.0,-999.0,43,-99.99,,,0.00,weatherlink.com 1.10,2013-04-02 18:25:00,
2013-04-02 13:40:00,33.4,12.0,30.34,NNW,337,2.0,-999.0,42,-99.99,,,0.00,weatherlink.com 1.10,2013-04-02 18:40:00,
2013-04-02 14:10:00,33.7,12.0,30.34,NNW,345,4.0,-999.0,41,-99.99,,,0.00,weatherlink.com 1.10,2013-04-02 19:10:00,
2013-04-02 14:25:00,33.7,14.0,30.34,North,358,0.0,-999.0,45,-99.99,,,0.00,weatherlink.com 1.10,2013-04-02 19:25:00,
2013-04-02 14:40:00,34.3,14.0,30.33,NNW,330,10.0,-999.0,43,-99.99,,,0.00,weatherlink.com 1.10,2013-04-02 19:40:00,
2013-04-02 14:55:00,33.7,12.0,30.33,NNE,23,10.0,-999.0,40,-99.99,,,0.00,weatherlink.com 1.10,2013-04-02 19:55:00,
2013-04-02 15:10:00,34.1,13.0,30.33,North,6,9.0,-999.0,41,-99.99,,,0.00,weatherlink.com 1.10,2013-04-02 20:10:00,
2013-04-02 15:25:00,34.3,14.0,30.33,NNE,13,4.0,-999.0,43,-99.99,,,0.00,weatherlink.com 1.10,2013-04-02 20:25:00,
2013-04-02 15:40:00,34.9,13.0,30.33,NW,316,3.0,-999.0,41,-99.99,,,0.00,weatherlink.com 1.10,2013-04-02 20:40:00,
2013-04-02 15:55:00,34.9,13.0,30.32,NNE,13,3.0,-999.0,40,-99.99,,,0.00,weatherlink.com 1.10,2013-04-02 20:55:00,
2013-04-02 16:10:00,34.1,11.0,30.32,NNW,340,5.0,-999.0,39,-99.99,,,0.00,weatherlink.com 1.10,2013-04-02 21:10:00,
2013-04-02 16:41:00,35.3,12.0,30.32,NNW,347,7.0,-999.0,38,-99.99,,,0.00,weatherlink.com 1.10,2013-04-02 21:41:00,
2013-04-02 17:11:00,35.6,13.0,30.32,North,355,2.0,-999.0,39,-99.99,,,0.00,weatherlink.com 1.10,2013-04-02 22:11:00,
2013-04-02 17:26:00,35.6,13.0,30.32,NNW,330,1.0,-999.0,39,-99.99,,,0.00,weatherlink.com 1.10,2013-04-02 22:26:00,
2013-04-02 17:41:00,35.2,12.0,30.33,North,11,3.0,-999.0,38,-99.99,,,0.00,weatherlink.com 1.10,2013-04-02 22:41:00,
2013-04-02 17:56:00,34.9,11.0,30.33,North,352,4.0,-999.0,38,-99.99,,,0.00,weatherlink.com 1.10,2013-04-02 22:56:00,
2013-04-02 18:11:00,34.9,10.0,30.34,North,358,4.0,-999.0,35,-99.99,,,0.00,weatherlink.com 1.10,2013-04-02 23:11:00,
2013-04-02 18:26:00,34.4,8.0,30.34,North,0,3.0,-999.0,33,-99.99,,,0.00,weatherlink.com 1.10,2013-04-02 23:26:00,
2013-04-02 18:41:00,34.3,9.0,30.34,North,352,3.0,-999.0,35,-99.99,,,0.00,weatherlink.com 1.10,2013-04-02 23:41:00,
2013-04-02 18:56:00,33.4,8.0,30.34,North,356,3.0,-999.0,35,-99.99,,,0.00,weatherlink.com 1.10,2013-04-02 23:56:00,
2013-04-02 19:11:00,32.9,9.0,30.34,NNE,16,2.0,-999.0,37,-99.99,,,0.00,weatherlink.com 1.10,2013-04-03 00:11:00,
2013-04-02 19:26:00,32.7,8.0,30.34,North,349,4.0,-999.0,36,-99.99,,,0.00,weatherlink.com 1.10,2013-04-03 00:26:00,
2013-04-02 19:40:00,32.1,9.0,30.34,North,0,0.0,-999.0,38,-99.99,,,0.00,weatherlink.com 1.10,2013-04-03 00:40:00,
2013-04-02 19:55:00,31.8,10.0,30.34,North,350,0.0,-999.0,40,-99.99,,,0.00,weatherlink.com 1.10,2013-04-03 00:55:00,
2013-04-02 20:10:00,31.0,10.0,30.34,North,0,0.0,-999.0,41,-99.99,,,0.00,weatherlink.com 1.10,2013-04-03 01:10:00,
2013-04-02 20:25:00,30.7,9.0,30.34,North,0,0.0,-999.0,41,-99.99,,,0.00,weatherlink.com 1.10,2013-04-03 01:25:00,
2013-04-02 20:40:00,30.0,10.0,30.34,North,0,0.0,-999.0,43,-99.99,,,0.00,weatherlink.com 1.10,2013-04-03 01:40:00,
2013-04-02 20:55:00,29.8,11.0,30.35,North,0,0.0,-999.0,45,-99.99,,,0.00,weatherlink.com 1.10,2013-04-03 01:55:00,
2013-04-02 21:10:00,29.4,11.0,30.36,North,0,0.0,-999.0,46,-99.99,,,0.00,weatherlink.com 1.10,2013-04-03 02:10:00,
2013-04-02 21:25:00,29.4,11.0,30.36,North,0,0.0,-999.0,47,-99.99,,,0.00,weatherlink.com 1.10,2013-04-03 02:25:00,
2013-04-02 21:40:00,29.0,11.0,30.36,North,0,1.0,-999.0,48,-99.99,,,0.00,weatherlink.com 1.10,2013-04-03 02:40:00,
2013-04-02 21:55:00,28.2,12.0,30.37,North,0,0.0,-999.0,50,-99.99,,,0.00,weatherlink.com 1.10,2013-04-03 02:55:00,
2013-04-02 22:10:00,28.2,12.0,30.36,North,0,0.0,-999.0,51,-99.99,,,0.00,weatherlink.com 1.10,2013-04-03 03:10:00,
2013-04-02 22:25:00,28.4,13.0,30.36,North,0,0.0,-999.0,52,-99.99,,,0.00,weatherlink.com 1.10,2013-04-03 03:25:00,
2013-04-02 22:40:00,28.1,14.0,30.37,North,0,1.0,-999.0,55,-99.99,,,0.00,weatherlink.com 1.10,2013-04-03 03:40:00,
2013-04-02 22:55:00,27.6,14.0,30.37,North,0,0.0,-999.0,58,-99.99,,,0.00,weatherlink.com 1.10,2013-04-03 03:55:00,
2013-04-02 23:10:00,27.0,14.0,30.37,North,0,0.0,-999.0,58,-99.99,,,0.00,weatherlink.com 1.10,2013-04-03 04:10:00,
2013-04-02 23:25:00,26.9,14.0,30.36,North,0,0.0,-999.0,59,-99.99,,,0.00,weatherlink.com 1.10,2013-04-03 04:25:00,
2013-04-02 23:40:00,26.9,14.0,30.36,North,0,0.0,-999.0,59,-99.99,,,0.00,weatherlink.com 1.10,2013-04-03 04:40:00,
2013-04-02 23:55:00,26.9,14.0,30.36,North,0,0.0,-999.0,58,-99.99,,,0.00,weatherlink.com 1.10,2013-04-03 04:55:00,